VTDKP VOSM-VOBL

Flight info

Callsign VTDKP
Flight time 0h 41m
Altitude 12500
Route DCT
Aircraft DA42/L-SBDGRY/S

Departure

Time 2026-04-27 12:37
Airport Salem Airport (VOSM)

Arrival

Time 2026-04-27 13:19
Airport Kempegowda International Airport Bengaluru (VOBL)
Time Latitude Longitude Altitude Speed Heading
2026-04-27 12:28 11.78253 78.06253 1007 ft 0 kts 305°
2026-04-27 12:32 11.78254 78.06252 1007 ft 0 kts 306°
2026-04-27 12:34 11.78256 78.06247 1007 ft 3 kts 274°
2026-04-27 12:34 11.78235 78.06241 1007 ft 4 kts 161°
2026-04-27 12:34 11.78224 78.06261 1008 ft 3 kts 96°
2026-04-27 12:34 11.78227 78.06274 1008 ft 3 kts 54°
2026-04-27 12:35 11.78260 78.06297 1009 ft 6 kts 34°
2026-04-27 12:35 11.78280 78.06331 1009 ft 6 kts 115°
2026-04-27 12:35 11.78262 78.06359 1010 ft 4 kts 122°
2026-04-27 12:35 11.78253 78.06371 1011 ft 0 kts 124°
2026-04-27 12:36 11.78245 78.06384 1011 ft 7 kts 124°
2026-04-27 12:36 11.78214 78.06432 1011 ft 8 kts 141°
2026-04-27 12:37 11.78162 78.06407 1010 ft 18 kts 211°
2026-04-27 12:37 11.77872 78.06205 1010 ft 77 kts 216°
2026-04-27 12:37 11.77394 78.05866 1272 ft 87 kts 212°
2026-04-27 12:37 11.76873 78.05518 1641 ft 87 kts 210°
2026-04-27 12:38 11.76384 78.05223 2027 ft 88 kts 202°
2026-04-27 12:38 11.75888 78.04804 2336 ft 95 kts 213°
2026-04-27 12:38 11.75382 78.04370 2679 ft 97 kts 213°
2026-04-27 12:38 11.75000 78.03791 3035 ft 104 kts 255°
2026-04-27 12:39 11.75112 78.03049 3399 ft 112 kts 298°
2026-04-27 12:39 11.75701 78.02541 3763 ft 113 kts 344°
2026-04-27 12:39 11.76460 78.02556 4129 ft 108 kts 28°
2026-04-27 12:39 11.77121 78.02902 4495 ft 107 kts 34°
2026-04-27 12:40 11.77781 78.03259 4834 ft 106 kts 32°
2026-04-27 12:40 11.78416 78.03616 5179 ft 103 kts 36°
2026-04-27 12:40 11.79052 78.03968 5531 ft 106 kts 34°
2026-04-27 12:40 11.79690 78.04333 5863 ft 108 kts 33°
2026-04-27 12:41 11.80346 78.04713 6197 ft 109 kts 34°
2026-04-27 12:41 11.81009 78.05105 6515 ft 112 kts 34°
2026-04-27 12:41 11.81694 78.05489 6841 ft 114 kts 28°
2026-04-27 12:41 11.82476 78.05657 7171 ft 117 kts
2026-04-27 12:42 11.83281 78.05526 7536 ft 117 kts 352°
2026-04-27 12:42 11.84076 78.05344 7880 ft 117 kts 350°
2026-04-27 12:42 11.84866 78.05149 8240 ft 117 kts 351°
2026-04-27 12:42 11.85641 78.04954 8596 ft 116 kts 351°
2026-04-27 12:43 11.86415 78.04757 8956 ft 113 kts 352°
2026-04-27 12:43 11.87169 78.04564 9324 ft 111 kts 352°
2026-04-27 12:43 11.87909 78.04375 9690 ft 109 kts 352°
2026-04-27 12:43 11.88638 78.04189 10025 ft 107 kts 352°
2026-04-27 12:44 11.89354 78.04006 10368 ft 106 kts 352°
2026-04-27 12:44 11.90061 78.03826 10713 ft 104 kts 352°
2026-04-27 12:44 11.90759 78.03647 11061 ft 103 kts 352°
2026-04-27 12:44 11.91452 78.03471 11413 ft 102 kts 353°
2026-04-27 12:45 11.92149 78.03294 11748 ft 104 kts 353°
2026-04-27 12:45 11.92846 78.03116 12078 ft 105 kts 353°
2026-04-27 12:45 11.93556 78.02936 12424 ft 106 kts 353°
2026-04-27 12:45 11.94337 78.02743 12490 ft 126 kts 353°
2026-04-27 12:46 11.95250 78.02515 12491 ft 142 kts 352°
2026-04-27 12:46 11.96251 78.02260 12508 ft 153 kts 351°
2026-04-27 12:46 11.97310 78.01987 12508 ft 160 kts 351°
2026-04-27 12:46 11.98404 78.01704 12505 ft 164 kts 350°
2026-04-27 12:47 11.99506 78.01421 12504 ft 167 kts 350°
2026-04-27 12:47 12.00636 78.01131 12505 ft 168 kts 350°
2026-04-27 12:47 12.01777 78.00840 12504 ft 170 kts 351°
2026-04-27 12:47 12.02921 78.00548 12500 ft 169 kts 351°
2026-04-27 12:48 12.04063 78.00255 12505 ft 170 kts 350°
2026-04-27 12:48 12.05214 77.99961 12505 ft 171 kts 350°
2026-04-27 12:48 12.06367 77.99667 12506 ft 171 kts 350°
2026-04-27 12:48 12.07524 77.99372 12519 ft 172 kts 350°
2026-04-27 12:49 12.08683 77.99075 12517 ft 172 kts 350°
2026-04-27 12:49 12.09827 77.98783 12517 ft 171 kts 350°
2026-04-27 12:49 12.10981 77.98489 12517 ft 171 kts 350°
2026-04-27 12:49 12.12132 77.98194 12517 ft 171 kts 350°
2026-04-27 12:50 12.13281 77.97901 12517 ft 170 kts 350°
2026-04-27 12:50 12.14430 77.97607 12509 ft 170 kts 350°
2026-04-27 12:50 12.15584 77.97312 12511 ft 171 kts 350°
2026-04-27 12:50 12.16742 77.97017 12510 ft 172 kts 350°
2026-04-27 12:51 12.17905 77.96720 12514 ft 173 kts 350°
2026-04-27 12:51 12.19056 77.96425 12513 ft 173 kts 350°
2026-04-27 12:51 12.20223 77.96127 12513 ft 173 kts 350°
2026-04-27 12:51 12.21393 77.95828 12513 ft 173 kts 350°
2026-04-27 12:52 12.22562 77.95528 12549 ft 173 kts 349°
2026-04-27 12:52 12.23733 77.95228 12549 ft 174 kts 350°
2026-04-27 12:52 12.24909 77.94928 12550 ft 174 kts 350°
2026-04-27 12:52 12.26085 77.94628 12549 ft 174 kts 350°
2026-04-27 12:53 12.28417 77.94032 12551 ft 174 kts 350°
2026-04-27 12:53 12.29592 77.93730 12551 ft 174 kts 349°
2026-04-27 12:53 12.30771 77.93429 12550 ft 175 kts 350°
2026-04-27 12:54 12.31948 77.93128 12550 ft 174 kts 350°
2026-04-27 12:54 12.33121 77.92828 12551 ft 174 kts 349°
2026-04-27 12:54 12.34302 77.92526 12486 ft 178 kts 350°
2026-04-27 12:54 12.35522 77.92214 12382 ft 183 kts 350°
2026-04-27 12:55 12.36753 77.91903 12355 ft 180 kts 350°
2026-04-27 12:55 12.37953 77.91593 12357 ft 177 kts 350°
2026-04-27 12:55 12.39125 77.91291 12357 ft 176 kts 349°
2026-04-27 12:55 12.40307 77.90988 12356 ft 175 kts 350°
2026-04-27 12:56 12.41486 77.90687 12355 ft 174 kts 350°
2026-04-27 12:56 12.42663 77.90386 12355 ft 175 kts 351°
2026-04-27 12:56 12.43840 77.90087 12326 ft 174 kts 350°
2026-04-27 12:56 12.45002 77.89787 12144 ft 170 kts 350°
2026-04-27 12:57 12.46138 77.89495 11976 ft 167 kts 351°
2026-04-27 12:57 12.47243 77.89212 11809 ft 165 kts 350°
2026-04-27 12:57 12.48353 77.88928 11642 ft 164 kts 350°
2026-04-27 12:57 12.49456 77.88645 11475 ft 163 kts 350°
2026-04-27 12:58 12.50548 77.88364 11314 ft 160 kts 348°
2026-04-27 12:58 12.51622 77.88089 11152 ft 158 kts 348°
2026-04-27 12:58 12.52688 77.87818 10987 ft 158 kts 348°
2026-04-27 12:58 12.53751 77.87545 10824 ft 157 kts 348°
2026-04-27 12:59 12.54812 77.87273 10662 ft 157 kts 348°
2026-04-27 12:59 12.55874 77.87001 10498 ft 157 kts 348°
2026-04-27 12:59 12.56918 77.86733 10340 ft 156 kts 349°
2026-04-27 12:59 12.57969 77.86463 10182 ft 156 kts 348°
2026-04-27 13:00 12.59022 77.86193 10022 ft 155 kts 349°
2026-04-27 13:00 12.60070 77.85926 9864 ft 155 kts 349°
2026-04-27 13:00 12.61112 77.85657 9706 ft 154 kts 348°
2026-04-27 13:00 12.62146 77.85390 9526 ft 153 kts 348°
2026-04-27 13:01 12.63179 77.85126 9353 ft 154 kts 348°
2026-04-27 13:01 12.64215 77.84862 9192 ft 153 kts 348°
2026-04-27 13:01 12.65243 77.84598 9023 ft 152 kts 348°
2026-04-27 13:01 12.66256 77.84338 8854 ft 151 kts 348°
2026-04-27 13:02 12.67279 77.84075 8681 ft 152 kts 350°
2026-04-27 13:02 12.68301 77.83814 8510 ft 151 kts 349°
2026-04-27 13:02 12.69320 77.83552 8343 ft 151 kts 349°
2026-04-27 13:02 12.70343 77.83289 8176 ft 152 kts 348°
2026-04-27 13:03 12.71370 77.83025 8016 ft 153 kts 349°
2026-04-27 13:03 12.72054 77.82850 7902 ft 153 kts 348°
2026-04-27 13:03 12.73082 77.82586 7735 ft 152 kts 350°
2026-04-27 13:03 12.74440 77.82237 7518 ft 152 kts 350°
2026-04-27 13:04 12.75458 77.81976 7351 ft 150 kts 351°
2026-04-27 13:04 12.76465 77.81717 7191 ft 148 kts 349°
2026-04-27 13:04 12.77466 77.81460 7035 ft 149 kts 350°
2026-04-27 13:04 12.78132 77.81290 6935 ft 149 kts 349°
2026-04-27 13:05 12.79133 77.81033 6789 ft 148 kts 349°
2026-04-27 13:05 12.80131 77.80776 6629 ft 148 kts 349°
2026-04-27 13:05 12.81133 77.80518 6477 ft 150 kts 349°
2026-04-27 13:05 12.82482 77.80173 6261 ft 152 kts 349°
2026-04-27 13:06 12.83510 77.79909 6093 ft 153 kts 349°
2026-04-27 13:06 12.84544 77.79643 5923 ft 153 kts 349°
2026-04-27 13:06 12.85236 77.79465 5811 ft 151 kts 350°
2026-04-27 13:06 12.86224 77.79210 5648 ft 147 kts 350°
2026-04-27 13:07 12.87206 77.78957 5525 ft 142 kts 350°
2026-04-27 13:07 12.88144 77.78714 5530 ft 141 kts 350°
2026-04-27 13:07 12.89146 77.78458 5533 ft 156 kts 349°
2026-04-27 13:07 12.90615 77.78083 5524 ft 167 kts 349°
2026-04-27 13:08 12.91366 77.77890 5529 ft 169 kts 349°
2026-04-27 13:08 12.92517 77.77594 5524 ft 171 kts 348°
2026-04-27 13:08 12.94061 77.77196 5528 ft 174 kts 349°
2026-04-27 13:08 12.94856 77.76992 5527 ft 175 kts 349°
2026-04-27 13:09 12.96021 77.76693 5526 ft 175 kts 349°
2026-04-27 13:09 12.97199 77.76390 5526 ft 174 kts 348°
2026-04-27 13:09 12.98374 77.76087 5525 ft 174 kts 349°
2026-04-27 13:09 12.99548 77.75783 5524 ft 174 kts 349°
2026-04-27 13:10 13.00725 77.75480 5527 ft 175 kts 349°
2026-04-27 13:10 13.01910 77.75176 5527 ft 176 kts 349°
2026-04-27 13:10 13.03100 77.74871 5525 ft 176 kts 349°
2026-04-27 13:10 13.04286 77.74566 5524 ft 175 kts 349°
2026-04-27 13:11 13.05454 77.74264 5524 ft 176 kts 349°
2026-04-27 13:11 13.06639 77.73959 5522 ft 176 kts 349°
2026-04-27 13:11 13.07825 77.73655 5498 ft 175 kts 349°
2026-04-27 13:11 13.09005 77.73351 5493 ft 174 kts 349°
2026-04-27 13:12 13.10176 77.73049 5500 ft 173 kts 348°
2026-04-27 13:12 13.11349 77.72748 5498 ft 174 kts 349°
2026-04-27 13:12 13.12529 77.72447 5498 ft 175 kts 349°
2026-04-27 13:12 13.13710 77.72142 5499 ft 175 kts 349°
2026-04-27 13:13 13.14875 77.71841 5498 ft 175 kts 349°
2026-04-27 13:13 13.16057 77.71533 5497 ft 176 kts 348°
2026-04-27 13:13 13.17077 77.70838 5481 ft 181 kts 309°
2026-04-27 13:13 13.17517 77.69673 5315 ft 171 kts 276°
2026-04-27 13:14 13.17608 77.68490 5154 ft 162 kts 271°
2026-04-27 13:14 13.17658 77.67353 4991 ft 157 kts 271°
2026-04-27 13:14 13.17695 77.66247 4828 ft 154 kts 271°
2026-04-27 13:14 13.17731 77.65155 4665 ft 153 kts 269°
2026-04-27 13:15 13.17781 77.64085 4495 ft 151 kts 271°
2026-04-27 13:15 13.17845 77.63021 4348 ft 145 kts 277°
2026-04-27 13:15 13.18166 77.62157 4348 ft 125 kts 307°
2026-04-27 13:15 13.18824 77.61599 4333 ft 122 kts 337°
2026-04-27 13:16 13.19625 77.61422 4388 ft 113 kts
2026-04-27 13:16 13.20333 77.61649 4439 ft 110 kts 45°
2026-04-27 13:16 13.20668 77.62374 4281 ft 116 kts 78°
2026-04-27 13:16 13.20795 77.63161 4176 ft 109 kts 86°
2026-04-27 13:17 13.20772 77.63896 4068 ft 94 kts 93°
2026-04-27 13:17 13.20749 77.64542 3894 ft 92 kts 90°
2026-04-27 13:17 13.20724 77.65183 3781 ft 88 kts 91°
2026-04-27 13:17 13.20738 77.65784 3707 ft 85 kts 91°
2026-04-27 13:18 13.20745 77.66400 3597 ft 89 kts 91°
2026-04-27 13:18 13.20728 77.67049 3493 ft 93 kts 89°
2026-04-27 13:18 13.20737 77.67718 3396 ft 93 kts 92°
2026-04-27 13:18 13.20722 77.68361 3223 ft 83 kts 94°
2026-04-27 13:19 13.20714 77.68984 2981 ft 85 kts 92°
2026-04-27 13:19 13.20708 77.69427 2963 ft 45 kts 91°
2026-04-27 13:19 13.20705 77.69674 2963 ft 27 kts 90°
2026-04-27 13:19 13.20706 77.69840 2963 ft 26 kts 91°
2026-04-27 13:20 13.20704 77.70031 2963 ft 22 kts 89°
2026-04-27 13:20 13.20703 77.70217 2964 ft 30 kts 91°
2026-04-27 13:20 13.20694 77.70393 2963 ft 20 kts 99°
2026-04-27 13:20 13.20658 77.70511 2959 ft 14 kts 113°
2026-04-27 13:21 13.20617 77.70588 2959 ft 14 kts 121°
2026-04-27 13:21 13.20555 77.70696 2963 ft 16 kts 119°
2026-04-27 13:21 13.20526 77.70821 2960 ft 18 kts 88°
2026-04-27 13:21 13.20525 77.70932 2959 ft 13 kts 91°
2026-04-27 13:22 13.20524 77.71028 2959 ft 14 kts 92°
2026-04-27 13:22 13.20523 77.71128 2960 ft 14 kts 89°
2026-04-27 13:22 13.20522 77.71234 2961 ft 15 kts 91°
2026-04-27 13:22 13.20438 77.71276 2962 ft 15 kts 180°
2026-04-27 13:23 13.20324 77.71275 2963 ft 17 kts 178°
2026-04-27 13:23 13.20277 77.71314 2963 ft 11 kts 90°
2026-04-27 13:23 13.20276 77.71404 2963 ft 14 kts 90°
2026-04-27 13:23 13.20265 77.71506 2963 ft 15 kts 99°
2026-04-27 13:24 13.20256 77.71615 2963 ft 15 kts 88°
2026-04-27 13:24 13.20255 77.71708 2963 ft 11 kts 86°
2026-04-27 13:24 13.20301 77.71721 2963 ft 5 kts
2026-04-27 13:24 13.20338 77.71722 2959 ft 4 kts 358°
2026-04-27 13:25 13.20340 77.71722 2960 ft 0 kts 357°